Raduga

operational
NORAD ID: 18631 Int'l Des: 1987-100 Owner: UNKS Country: SU
MEOCIRCULAR

Über Raduga

Beschreibung wird geladen...

Live-Position

3D-Globus wird geladen...

Nächste Überflüge

Höhenverlauf

Altitude vs Time

uPlot chart will show altitude changes over time

Zweizeiliger Elementsatz

1 18631U 87100A 26063.12197642 -.00000022 00000-0 00000+0 0 9998
2 18631 11.4560 326.0021 0001631 308.8377 168.9352 1.00356384140031
Epoch: 4. März 2026 • Age: 17 hours

Aktueller Status

Höhe 35757.0 km
Geschwindigkeit 3.08 km/s
Subsatellitenpunkt -4.86°S, 121.35°W
Startdatum 10. Dez. 1987
Alter 38.2 years
Typ other

Technische Details

Klassifizierung Payload
Masse 1965.00 kg
Trockenmasse 1800.00 kg
Gesamtmasse 1965.00 kg
Länge 5.50 m
Durchmesser 2.50 m
Spannweite 9.50 m
Form Step Cyl + 2 Pan
Hersteller NPOPM
Bus-Typ Raduga
Phasenstatus In Orbit
Besitzer/Staat UNKS/SU

Große Konstellationen

Loading constellations...